TimeAKDT,TemperatureF,Dew PointF,Humidity,Sea Level PressureIn,VisibilityMPH,Wind Direction,Wind SpeedMPH,Gust SpeedMPH,PrecipitationIn,Events,Conditions,WindDirDegrees,DateUTC
12:54 AM,54.0,51.1,90,29.73,10.0,East,8.1,-,N/A,,Overcast,80,2013-08-19 08:54:00
1:54 AM,54.0,51.1,90,29.73,10.0,Variable,4.6,-,N/A,,Overcast,0,2013-08-19 09:54:00
2:05 AM,53.6,51.8,94,29.73,10.0,East,4.6,-,N/A,,Overcast,90,2013-08-19 10:05:00
2:31 AM,53.6,50.0,88,29.73,10.0,East,6.9,-,N/A,,Overcast,80,2013-08-19 10:31:00
2:54 AM,54.0,50.0,86,29.73,10.0,East,5.8,-,N/A,,Overcast,90,2013-08-19 10:54:00
3:54 AM,54.0,50.0,86,29.74,10.0,Variable,5.8,-,N/A,,Overcast,0,2013-08-19 11:54:00
4:54 AM,54.0,48.9,83,29.74,10.0,Variable,5.8,-,N/A,,Overcast,0,2013-08-19 12:54:00
5:54 AM,53.1,48.9,86,29.74,10.0,East,5.8,-,N/A,,Overcast,90,2013-08-19 13:54:00
6:54 AM,54.0,48.9,83,29.74,10.0,East,6.9,-,N/A,,Overcast,80,2013-08-19 14:54:00
7:54 AM,54.0,48.9,83,29.75,10.0,East,8.1,-,N/A,,Overcast,80,2013-08-19 15:54:00
8:36 AM,53.6,48.2,82,29.75,10.0,Variable,5.8,-,N/A,,Overcast,0,2013-08-19 16:36:00
8:54 AM,55.0,48.9,80,29.76,10.0,ENE,9.2,-,N/A,,Overcast,60,2013-08-19 16:54:00
9:33 AM,55.4,50.0,82,29.76,10.0,East,8.1,-,N/A,,Overcast,80,2013-08-19 17:33:00
9:54 AM,55.9,48.9,77,29.77,10.0,East,5.8,-,N/A,,Overcast,80,2013-08-19 17:54:00
10:50 AM,57.2,48.2,72,29.77,10.0,East,6.9,-,N/A,,Overcast,100,2013-08-19 18:50:00
10:54 AM,57.9,50.0,75,29.78,10.0,ESE,8.1,-,N/A,,Overcast,110,2013-08-19 18:54:00
11:54 AM,59.0,51.1,75,29.79,10.0,ESE,10.4,-,N/A,,Overcast,110,2013-08-19 19:54:00
12:05 PM,57.2,50.0,77,29.78,10.0,ESE,6.9,-,N/A,,Overcast,110,2013-08-19 20:05:00
12:54 PM,57.0,50.0,77,29.81,10.0,East,12.7,17.3,N/A,,Overcast,100,2013-08-19 20:54:00
1:54 PM,57.9,51.1,78,29.81,10.0,East,9.2,16.1,N/A,,Overcast,90,2013-08-19 21:54:00
2:54 PM,57.9,51.1,78,29.82,10.0,East,11.5,21.9,N/A,,Overcast,80,2013-08-19 22:54:00
3:54 PM,57.9,51.1,78,29.83,10.0,East,8.1,16.1,N/A,,Overcast,100,2013-08-19 23:54:00
4:54 PM,57.9,51.1,78,29.84,10.0,East,6.9,-,N/A,,Overcast,90,2013-08-20 00:54:00
5:54 PM,57.9,51.1,78,29.85,10.0,Variable,3.5,-,N/A,,Overcast,0,2013-08-20 01:54:00
6:54 PM,57.9,51.1,78,29.85,10.0,ENE,8.1,-,N/A,,Overcast,70,2013-08-20 02:54:00
7:54 PM,57.0,51.1,81,29.86,10.0,ESE,11.5,-,N/A,,Overcast,110,2013-08-20 03:54:00
8:54 PM,57.0,51.1,81,29.88,10.0,East,8.1,18.4,N/A,,Overcast,100,2013-08-20 04:54:00
9:54 PM,55.9,51.1,84,29.90,10.0,East,6.9,-,N/A,,Overcast,100,2013-08-20 05:54:00
10:34 PM,55.4,51.8,88,29.89,10.0,East,8.1,-,N/A,,Overcast,100,2013-08-20 06:34:00
10:54 PM,55.9,51.1,84,29.91,10.0,East,8.1,-,N/A,,Overcast,90,2013-08-20 06:54:00
11:54 PM,55.9,51.1,84,29.92,10.0,East,5.8,-,N/A,,Overcast,80,2013-08-20 07:54:00